�������l�o���
Date,Time,MP-1(��Sv/h),MP-2(��Sv/h),MP-3(��Sv/h),MP-4(��Sv/h),MP-5(��Sv/h),MP-6(��Sv/h),MP-7(��Sv/h),MP-8(��Sv/h),����,����(m/s),���J
2019/02/24,00:00,0.793,1.148,0.795,1.480,1.068,0.444,0.790,0.749,���k��,3.2,��
2019/02/24,00:10,0.794,1.148,0.794,1.483,1.067,0.444,0.790,0.748,���k��,3.6,��
2019/02/24,00:20,0.794,1.147,0.792,1.484,1.068,0.444,0.789,0.748,���k��,4.1,��
2019/02/24,00:30,0.796,1.148,0.795,1.482,1.067,0.443,0.791,0.747,���k��,3.7,��
2019/02/24,00:40,0.792,1.149,0.795,1.483,1.065,0.443,0.791,0.748,���k��,3.9,��
2019/02/24,00:50,0.792,1.149,0.796,1.481,1.067,0.442,0.789,0.748,���k��,5.2,��
2019/02/24,01:00,0.794,1.149,0.795,1.481,1.067,0.444,0.789,0.748,�k��,4.7,��
2019/02/24,01:10,0.792,1.148,0.795,1.479,1.064,0.443,0.790,0.746,�k��,4.7,��
2019/02/24,01:20,0.793,1.146,0.794,1.484,1.066,0.444,0.788,0.747,�k��,4.8,��
2019/02/24,01:30,0.793,1.147,0.793,1.483,1.067,0.444,0.788,0.749,�k��,5.2,��
2019/02/24,01:40,0.794,1.147,0.796,1.484,1.066,0.442,0.789,0.749,�k��,4.6,��
2019/02/24,01:50,0.793,1.146,0.796,1.482,1.066,0.443,0.788,0.748,�k��,3.6,��
2019/02/24,02:00,0.793,1.149,0.794,1.481,1.066,0.444,0.788,0.748,�k��,3.5,��
2019/02/24,02:10,0.793,1.144,0.794,1.483,1.067,0.443,0.789,0.746,�k�k��,4.5,��
2019/02/24,02:20,0.794,1.146,0.793,1.480,1.066,0.443,0.789,0.746,�k�k��,3.5,��
2019/02/24,02:30,0.791,1.149,0.794,1.481,1.068,0.444,0.788,0.746,�k��,3.0,��
2019/02/24,02:40,0.791,1.147,0.795,1.481,1.065,0.444,0.789,0.748,�k��,3.2,��
2019/02/24,02:50,0.791,1.147,0.796,1.483,1.065,0.443,0.789,0.747,�k��,3.0,��
2019/02/24,03:00,0.792,1.146,0.795,1.479,1.065,0.443,0.789,0.746,���k��,2.0,��
2019/02/24,03:10,0.792,1.146,0.794,1.477,1.065,0.442,0.790,0.747,�k��,1.4,��
2019/02/24,03:20,0.793,1.146,0.795,1.481,1.066,0.444,0.788,0.747,���k��,1.1,��
2019/02/24,03:30,0.794,1.147,0.793,1.481,1.066,0.443,0.785,0.747,�k��,0.6,��
2019/02/24,03:40,0.792,1.147,0.793,1.484,1.065,0.443,0.789,0.747,��,0.9,��
2019/02/24,03:50,0.792,1.145,0.793,1.479,1.068,0.444,0.789,0.747,���쐼,1.2,��
2019/02/24,04:00,0.792,1.146,0.793,1.480,1.067,0.443,0.789,0.746,�쐼,1.2,��
2019/02/24,04:10,0.792,1.147,0.794,1.480,1.065,0.444,0.788,0.745,���쐼,1.5,��
2019/02/24,04:20,0.792,1.145,0.793,1.480,1.066,0.444,0.789,0.747,���쐼,0.8,��
2019/02/24,04:30,0.791,1.146,0.793,1.481,1.066,0.443,0.790,0.747,���k��,0.6,��
2019/02/24,04:40,0.790,1.146,0.792,1.480,1.067,0.442,0.788,0.747,�k��,1.4,��
2019/02/24,04:50,0.792,1.149,0.794,1.480,1.064,0.442,0.789,0.748,��,2.0,��
2019/02/24,05:00,0.791,1.149,0.794,1.484,1.066,0.442,0.788,0.745,��,2.3,��
2019/02/24,05:10,0.791,1.147,0.793,1.480,1.063,0.442,0.789,0.750,��,2.5,��
2019/02/24,05:20,0.792,1.147,0.793,1.480,1.063,0.440,0.788,0.747,���k��,2.8,��
2019/02/24,05:30,0.791,1.148,0.794,1.479,1.064,0.442,0.789,0.745,���k��,2.2,��
2019/02/24,05:40,0.791,1.146,0.794,1.478,1.063,0.442,0.789,0.746,��,1.2,��
2019/02/24,05:50,0.792,1.148,0.793,1.479,1.067,0.441,0.788,0.750,���k��,1.2,��
2019/02/24,06:00,0.792,1.145,0.791,1.480,1.063,0.442,0.787,0.745,�k��,0.8,��
2019/02/24,06:10,0.791,1.147,0.794,1.482,1.063,0.443,0.788,0.747,�k��,1.5,��
2019/02/24,06:20,0.791,1.144,0.794,1.481,1.064,0.441,0.787,0.746,�k�k��,0.9,��
2019/02/24,06:30,0.793,1.146,0.793,1.480,1.064,0.441,0.788,0.748,�k��,1.4,��
2019/02/24,06:40,0.791,1.145,0.793,1.479,1.062,0.441,0.789,0.746,�k��,0.6,��
2019/02/24,06:50,0.791,1.147,0.794,1.479,1.064,0.441,0.788,0.747,�k��,1.1,��
2019/02/24,07:00,0.789,1.145,0.792,1.478,1.065,0.442,0.787,0.747,�k��,0.8,��
2019/02/24,07:10,0.791,1.149,0.791,1.478,1.064,0.443,0.788,0.747,�k�k��,0.8,��
2019/02/24,07:20,0.792,1.146,0.795,1.480,1.062,0.441,0.789,0.748,�k,0.9,��
2019/02/24,07:30,0.791,1.148,0.795,1.482,1.064,0.442,0.788,0.747,�k��,2.9,��
2019/02/24,07:40,0.792,1.148,0.792,1.481,1.064,0.442,0.788,0.747,���k��,2.3,��
2019/02/24,07:50,0.793,1.148,0.794,1.483,1.064,0.443,0.789,0.748,���k��,3.5,��
2019/02/24,08:00,0.793,1.146,0.796,1.483,1.066,0.444,0.790,0.748,���k��,2.9,��
2019/02/24,08:10,0.792,1.149,0.794,1.484,1.067,0.445,0.790,0.747,���k��,2.8,��
2019/02/24,08:20,0.793,1.148,0.794,1.480,1.065,0.443,0.790,0.747,��,2.0,��
2019/02/24,08:30,0.793,1.149,0.794,1.482,1.065,0.441,0.789,0.748,��,1.7,��
2019/02/24,08:40,0.794,1.148,0.794,1.479,1.067,0.444,0.791,0.749,���쐼,1.4,��
2019/02/24,08:50,0.794,1.151,0.794,1.483,1.065,0.443,0.791,0.748,��쐼,0.6,��
2019/02/24,09:00,0.795,1.147,0.796,1.485,1.066,0.443,0.792,0.747,��쓌,0.9,��
2019/02/24,09:10,0.795,1.148,0.796,1.485,1.067,0.443,0.791,0.748,�쓌,2.0,��
2019/02/24,09:20,0.794,1.148,0.797,1.483,1.066,0.444,0.789,0.747,�쓌,2.0,��
2019/02/24,09:30,0.795,1.149,0.797,1.481,1.069,0.444,0.790,0.747,�쓌,3.0,��
2019/02/24,09:40,0.794,1.150,0.796,1.484,1.066,0.442,0.790,0.749,�쓌,3.1,��
2019/02/24,09:50,0.792,1.148,0.797,1.484,1.065,0.443,0.791,0.748,���쓌,3.2,��
2019/02/24,10:00,0.794,1.146,0.796,1.481,1.065,0.443,0.790,0.747,���쓌,3.9,��
2019/02/24,10:10,0.795,1.148,0.797,1.483,1.068,0.444,0.789,0.748,�쓌,3.2,��
2019/02/24,10:20,0.794,1.148,0.796,1.481,1.068,0.444,0.787,0.749,�쓌,4.1,��
2019/02/24,10:30,0.794,1.150,0.797,1.483,1.070,0.445,0.791,0.748,�쓌,4.6,��
2019/02/24,10:40,0.794,1.149,0.797,1.482,1.070,0.446,0.789,0.748,�쓌,4.3,��
2019/02/24,10:50,0.795,1.149,0.795,1.484,1.068,0.445,0.788,0.749,��쓌,3.8,��
2019/02/24,11:00,0.797,1.151,0.797,1.482,1.070,0.445,0.788,0.748,��쓌,5.1,��
2019/02/24,11:10,0.796,1.153,0.795,1.484,1.068,0.448,0.790,0.748,�쓌,4.3,��
2019/02/24,11:20,0.794,1.154,0.797,1.485,1.070,0.444,0.789,0.747,��쓌,5.5,��
2019/02/24,11:30,0.799,1.153,0.798,1.486,1.068,0.446,0.790,0.748,�쓌,5.3,��
2019/02/24,11:40,0.796,1.151,0.798,1.484,1.070,0.445,0.790,0.749,�쓌,4.7,��
2019/02/24,11:50,0.796,1.151,0.799,1.484,1.067,0.445,0.791,0.749,�쓌,4.6,��
2019/02/24,12:00,0.797,1.152,0.796,1.485,1.070,0.446,0.791,0.750,��쓌,4.5,��
2019/02/24,12:10,0.796,1.151,0.799,1.485,1.072,0.447,0.792,0.750,��쓌,6.0,��
2019/02/24,12:20,0.795,1.153,0.798,1.484,1.069,0.447,0.790,0.750,��쓌,4.8,��
2019/02/24,12:30,0.796,1.155,0.797,1.486,1.068,0.447,0.791,0.752,�쓌,5.0,��
2019/02/24,12:40,0.798,1.155,0.799,1.484,1.068,0.446,0.792,0.750,��쓌,6.4,��
2019/02/24,12:50,0.796,1.155,0.798,1.485,1.069,0.446,0.791,0.750,��쓌,7.2,��
2019/02/24,13:00,0.796,1.154,0.799,1.486,1.070,0.449,0.791,0.750,��쓌,7.2,��
2019/02/24,13:10,0.798,1.153,0.799,1.485,1.070,0.448,0.791,0.748,��쓌,8.2,��
2019/02/24,13:20,0.798,1.156,0.799,1.487,1.068,0.448,0.791,0.749,��쓌,9.6,��
2019/02/24,13:30,0.796,1.154,0.799,1.486,1.068,0.448,0.791,0.748,��쓌,9.6,��
2019/02/24,13:40,0.797,1.153,0.798,1.485,1.069,0.448,0.791,0.747,��쓌,10.0,��
2019/02/24,13:50,0.797,1.154,0.798,1.486,1.069,0.447,0.790,0.747,��쓌,11.0,��
2019/02/24,14:00,0.797,1.153,0.798,1.486,1.071,0.447,0.794,0.748,��쓌,8.8,��
2019/02/24,14:10,0.797,1.153,0.797,1.486,1.072,0.448,0.792,0.746,��쓌,10.5,��
2019/02/24,14:20,0.798,1.152,0.799,1.487,1.072,0.450,0.790,0.746,��,10.3,��
2019/02/24,14:30,0.799,1.153,0.799,1.486,1.069,0.448,0.791,0.746,��쓌,12.0,��
2019/02/24,14:40,0.797,1.156,0.799,1.486,1.073,0.450,0.793,0.748,��쓌,9.8,��
2019/02/24,14:50,0.799,1.153,0.800,1.485,1.073,0.450,0.793,0.748,��쓌,9.1,��
2019/02/24,15:00,0.797,1.153,0.798,1.486,1.070,0.449,0.793,0.747,��쓌,8.5,��
2019/02/24,15:10,0.797,1.156,0.802,1.486,1.072,0.448,0.793,0.748,��쓌,10.6,��
2019/02/24,15:20,0.798,1.158,0.800,1.486,1.070,0.448,0.791,0.746,��,7.9,��
2019/02/24,15:30,0.796,1.157,0.799,1.487,1.069,0.448,0.792,0.745,��,8.3,��
2019/02/24,15:40,0.798,1.159,0.800,1.486,1.071,0.449,0.794,0.747,��,7.3,��
2019/02/24,15:50,0.799,1.157,0.800,1.487,1.072,0.450,0.792,0.747,��,8.7,��
2019/02/24,16:00,0.798,1.156,0.800,1.486,1.073,0.450,0.793,0.749,��,10.6,��
2019/02/24,16:10,0.798,1.157,0.801,1.488,1.070,0.450,0.793,0.750,��,7.4,��
2019/02/24,16:20,0.800,1.155,0.799,1.486,1.069,0.451,0.794,0.751,��,7.8,��
2019/02/24,16:30,0.801,1.158,0.799,1.486,1.073,0.448,0.792,0.749,��,11.4,��
2019/02/24,16:40,0.800,1.155,0.800,1.488,1.071,0.449,0.792,0.750,��,9.4,��
2019/02/24,16:50,0.801,1.156,0.800,1.488,1.070,0.449,0.792,0.748,��,8.5,��
2019/02/24,17:00,0.797,1.153,0.799,1.486,1.070,0.449,0.795,0.750,��,9.0,��
2019/02/24,17:10,0.798,1.160,0.801,1.484,1.072,0.449,0.793,0.749,��,7.8,��
2019/02/24,17:20,0.798,1.156,0.801,1.484,1.072,0.448,0.793,0.752,��,8.7,��
2019/02/24,17:30,0.799,1.159,0.800,1.487,1.075,0.449,0.794,0.749,��,8.3,��
2019/02/24,17:40,0.798,1.157,0.800,1.486,1.074,0.450,0.794,0.751,��,8.0,��
2019/02/24,17:50,0.801,1.157,0.800,1.485,1.074,0.449,0.795,0.749,��쐼,8.1,��
2019/02/24,18:00,0.799,1.156,0.798,1.486,1.075,0.449,0.794,0.750,��쐼,8.2,��
2019/02/24,18:10,0.801,1.158,0.801,1.486,1.075,0.449,0.795,0.750,��쐼,7.5,��
2019/02/24,18:20,0.799,1.159,0.801,1.486,1.072,0.448,0.795,0.750,��쐼,7.1,��
2019/02/24,18:30,0.799,1.157,0.801,1.486,1.073,0.448,0.794,0.749,�쐼,6.7,��
2019/02/24,18:40,0.801,1.158,0.799,1.485,1.073,0.448,0.794,0.750,�쐼,6.8,��
2019/02/24,18:50,0.799,1.157,0.801,1.486,1.074,0.449,0.795,0.750,�쐼,7.6,��
2019/02/24,19:00,0.800,1.157,0.801,1.486,1.076,0.449,0.793,0.749,�쐼,7.7,��
2019/02/24,19:10,0.802,1.154,0.800,1.485,1.072,0.449,0.793,0.748,�쐼,6.9,��
2019/02/24,19:20,0.799,1.156,0.802,1.485,1.072,0.447,0.793,0.749,���쐼,6.2,��
2019/02/24,19:30,0.800,1.159,0.798,1.485,1.074,0.450,0.795,0.749,���쐼,5.0,��
2019/02/24,19:40,0.799,1.156,0.800,1.485,1.072,0.449,0.793,0.750,�쐼,5.5,��
2019/02/24,19:50,0.799,1.155,0.800,1.485,1.074,0.449,0.794,0.749,�쐼,7.0,��
2019/02/24,20:00,0.799,1.157,0.801,1.487,1.074,0.448,0.792,0.750,�쐼,5.1,��
2019/02/24,20:10,0.798,1.156,0.800,1.485,1.072,0.448,0.794,0.748,�쐼,4.4,��
2019/02/24,20:20,0.800,1.159,0.800,1.483,1.074,0.449,0.793,0.751,��,4.2,��
2019/02/24,20:30,0.797,1.154,0.799,1.484,1.074,0.447,0.793,0.748,��,2.6,��
2019/02/24,20:40,0.799,1.154,0.798,1.486,1.072,0.449,0.793,0.750,��쓌,2.3,��
2019/02/24,20:50,0.798,1.155,0.800,1.484,1.075,0.447,0.793,0.750,��쐼,2.0,��
2019/02/24,21:00,0.800,1.154,0.799,1.486,1.074,0.447,0.792,0.749,�쐼,3.1,��
2019/02/24,21:10,0.799,1.154,0.800,1.487,1.073,0.448,0.793,0.749,��쐼,3.0,��
2019/02/24,21:20,0.798,1.157,0.799,1.484,1.073,0.448,0.793,0.748,��쐼,4.2,��
2019/02/24,21:30,0.798,1.154,0.801,1.486,1.072,0.447,0.794,0.751,��,5.4,��
2019/02/24,21:40,0.800,1.154,0.801,1.485,1.073,0.447,0.793,0.750,��쐼,4.2,��
2019/02/24,21:50,0.799,1.155,0.800,1.485,1.073,0.447,0.794,0.750,��쐼,6.0,��
2019/02/24,22:00,0.798,1.155,0.799,1.487,1.073,0.448,0.793,0.751,��쐼,6.5,��
2019/02/24,22:10,0.801,1.156,0.798,1.486,1.074,0.446,0.793,0.750,��쐼,4.9,��
2019/02/24,22:20,0.798,1.154,0.801,1.486,1.075,0.447,0.792,0.749,��쐼,5.2,��
2019/02/24,22:30,0.800,1.157,0.799,1.485,1.073,0.446,0.793,0.749,��쐼,6.7,��
2019/02/24,22:40,0.800,1.153,0.799,1.484,1.072,0.447,0.792,0.747,��쐼,6.4,��
2019/02/24,22:50,0.799,1.154,0.800,1.484,1.074,0.447,0.794,0.751,��,5.6,��
2019/02/24,23:00,0.799,1.152,0.799,1.485,1.074,0.446,0.794,0.748,��,5.7,��
2019/02/24,23:10,0.798,1.155,0.800,1.483,1.073,0.447,0.794,0.749,��,5.3,��
2019/02/24,23:20,0.798,1.155,0.800,1.486,1.075,0.448,0.793,0.751,��,4.1,��
2019/02/24,23:30,0.799,1.154,0.801,1.486,1.073,0.448,0.794,0.749,��,4.0,��
2019/02/24,23:40,0.798,1.152,0.799,1.484,1.072,0.445,0.792,0.751,��쐼,4.3,��
2019/02/24,23:50,0.799,1.153,0.801,1.486,1.073,0.446,0.793,0.750,��,3.4,��
